Hourly Data Report for December 03, 2021

TORONTO CITY
ONTARIO
Current Station Operator: ECCC - MSC

43°40'00.000" N
79°24'00.000" W
112.50 m
6158355
71508
XTO

Download Data

Hourly Data (December 2021)
Hourly Data Report for December 3, 2021
TIME
LST
Temp Definition
°C
Dew Point Definition
°C
Rel Hum Definition
%
Precip. Amount Definition
mm

Wind Dir Definition
10's deg

Wind Spd Definition
km/h
Visibility Definition
km
Stn Press Definition
kPa
Hmdx Definition


Wind Chill Definition


Weather Definition


00:00 2.8 -3.7 62 0.0       99.82     LegendNANA
01:00 2.5 -4.1 62 0.0       99.88     LegendNANA
02:00 2.2 -4.6 61 0.0       99.96     LegendNANA
03:00 1.8 -5.1 60 0.0       100.06     LegendNANA
04:00 1.3 -6.2 57 0.0       100.08     LegendNANA
05:00 1.3 -6.3 57 0.0       100.05     LegendNANA
06:00 1.3 -6.2 58 0.0       100.19     LegendNANA
07:00 1.2 -5.9 59 0.0       100.30     LegendNANA
08:00 0.8 -7.2 55 0.0       100.36     LegendNANA
09:00 0.6 -8.4 51 0.0       100.45     LegendNANA
10:00 1.2 -7.7 51 0.0       100.49     LegendNANA
11:00 1.8 -7.9 49 0.0       100.45     LegendNANA
12:00 1.1 -8.3 50 0.0       100.44     LegendNANA
13:00 1.7 -7.5 50 0.0       100.37     LegendNANA
14:00 1.9 -6.8 52 0.0       100.38     LegendNANA
15:00 1.9 -6.3 54 0.0       100.32     LegendNANA
16:00 1.5 -6.7 54 0.0       100.38     LegendNANA
17:00 1.2 -6.9 55 0.0       100.41     LegendNANA
18:00 1.0 -6.6 57 0.0       100.44     LegendNANA
19:00 1.0 -6.7 56 0.0       100.40     LegendNANA
20:00 0.9 -7.0 56 0.0       100.44     LegendNANA
21:00 1.0 -6.2 59 0.0       100.43     LegendNANA
22:00 1.0 -5.7 61 0.0       100.46     LegendNANA
23:00 1.0 -5.5 62 0.0       100.47     LegendNANA

Notes on Data Quality.

Legend

  • E = Estimated
  • M = Missing
  • NA = Not Available*
  • [empty] = Indicates an unobserved value
Date modified: